Tracking 30995 objects as of 5-Jul-2025
HD Live streaming from Space Station
objects crossing your sky now

OPS 7684 DEB

Track OPS 7684 DEB now!
10-day predictions


NORAD ID: 3618
Int'l Code: 1968-112D
Perigee: 1,383.9 km
Apogee: 1,510.3 km
Inclination: 80.5 °
Period: 114.7 minutes
Semi major axis: 7818 km
RCS: 0.0651 m2 (small)
Launch date: December 12, 1968
Source: United States (US)
Launch site: AIR FORCE WESTERN TEST RANGE (AFWTR)

Note: This is SATELLITE DEBRIS
Your satellite tracking list
FENGYUN 1C DEB
Track 1 satellite(s)




NASA's NSSDC Master Catalog

Two Line Element Set (TLE):
1 03618U 68112D   25185.27274904  .00000069  00000-0  37809-3 0  9997
2 03618  80.5337 119.3648 0080837 214.3019 299.5489 12.55877460591381
Source of the keplerian elements: AFSPC